Content
SEND FEEDBACK

Daily
Averages
Monthly
Summary
United States of America

HARTFORD, SOUTH DAKOTA


Home > North America > United States > South Dakota
Elevation: 1550 feet     Latitude: 43 43N     Longitude: 096 53W

WEATHER
 
SELECT A DAY
Number of Records: 202,979;   Date Range: 1/1/95 - 7/27/14
 
SHARE

PRINT THIS DATA

[ ← Previous Day ]
WEATHER ALMANAC - FEBRUARY 1, 2013
[ Next Day → ]
[ °C ]   °F
Weather ElementAverageHighLow
Temperature7.9 °F21.9 °F (8:56 pm)-8 °F (3:56 am)
Dewpoint1.1 °F15.1 °F (8:56 pm)-13 °F (1:56 am)
Humidity74 %84 % (5:56 am)65 % (3:56 pm)
Barometer30.20 in30.43 in (1:56 am)30.04 in (4:56 pm)
Wind Speed7.7 mph16.1 mph (2:56 pm)
Wind Gust20.7 mph (3:56 pm)
Weather ElementAverage
Visibility10 mi
Wind DirectionS (175.2 °)

Weather ElementTotal
Precipitation---
Heating Degree Days58.1 (Base 65)
Averaged from 23 records on February 1, 2013
WEATHER CONDITIONS BREAKOUT
WIND DIRECTION BREAKOUT
WEATHER BY HOUR - FEBRUARY 1, 2013
[ °C ]   °F
Local TimeTemperatureDewpointHumidityBarometerVisibilityWind DirectionWind SpeedGust SpeedPrecipitationEventsConditions
1:56 AM-7.1 °F-13.0 °F75 %30.43 in10.0 miSW (230°)4.6 mphClear
2:56 AM-7.1 °F-13.0 °F75 %30.42 in10.0 miCalmClear
3:56 AM-8.0 °F-13.0 °F79 %30.40 in10.0 miCalmClear
4:56 AM-7.1 °F-11.9 °F79 %30.38 in10.0 miSouth (190°)3.5 mphClear
5:56 AM-7.6 °F-11.2 °F84 %30.23 in10.0 miCalmClear
6:56 AM-4.0 °F-9.0 °F79 %30.34 in10.0 miSouth (190°)3.5 mphMostly Cloudy
7:56 AM-2.0 °F-9.0 °F72 %30.33 in10.0 miSouth (170°)9.2 mphMostly Cloudy
8:56 AM0.0 °F-7.1 °F72 %30.30 in10.0 miSSE (160°)8.1 mphMostly Cloudy
9:56 AM1.9 °F-5.1 °F72 %30.28 in10.0 miSouth (170°)11.5 mphMostly Cloudy
10:56 AM6.1 °F-2.9 °F67 %30.24 in10.0 miSouth (170°)13.8 mphMostly Cloudy
11:56 AM9.0 °F0.0 °F67 %30.19 in10.0 miSouth (180°)12.7 mphOvercast
12:56 PM10.9 °F1.9 °F67 %30.15 in9.0 miSouth (180°)13.8 mph0.00 inSnowLight Snow
1:56 PM14.0 °F5.0 °F67 %30.11 in10.0 miSouth (190°)10.4 mph0.00 inOvercast
2:56 PM16.0 °F7.0 °F68 %30.08 in10.0 miSouth (180°)16.1 mph0.00 inOvercast
3:56 PM19.0 °F9.0 °F65 %30.06 in10.0 miSSW (200°)11.5 mph20.7 mphMostly Cloudy
4:56 PM19.9 °F10.9 °F68 %30.04 in10.0 miSouth (190°)8.1 mphPartly Cloudy
5:56 PM19.0 °F10.9 °F71 %30.04 in10.0 miCalmClear
6:56 PM16.0 °F10.9 °F81 %30.05 in10.0 miNNE (20°)4.6 mphMostly Cloudy
7:56 PM18.0 °F12.0 °F78 %30.07 in10.0 miNNW (330°)4.6 mphOvercast
8:56 PM21.9 °F15.1 °F75 %30.06 in10.0 miNW (310°)11.5 mphOvercast
9:56 PM17.1 °F12.0 °F81 %30.09 in10.0 miNW (310°)8.1 mphPartly Cloudy
10:56 PM18.0 °F12.0 °F78 %30.11 in10.0 miNW (320°)11.5 mphOvercast
11:56 PM18.0 °F12.9 °F81 %30.12 in10.0 miNNW (340°)10.4 mphOvercast
Hourly data recorded from KFSD, located miles away from Hartford, South Dakota







STORIES FROM OUR PARTNERS